Guthrie, OK

8:54 PM CST on February 13, 2016 (GMT -0600)
Guthrie Municipal

Weather History for KGOK - March, 2014

Change the Weather History Date:

Tuesday, March 18, 2014

  Actual Average Record
Temperature  
Mean Temperature 59 °F -  
Max Temperature 73 °F 65 °F 85 °F (1963)
Min Temperature 44 °F 40 °F 18 °F (1965)
Degree Days  
Heating Degree Days 6    
Growing Degree Days 9 (Base 50)    
Moisture  
Dew Point 29 °F    
Average Humidity 35    
Maximum Humidity 51    
Minimum Humidity 17    
Precipitation  
Precipitation 0.00 in - - ()
Sea Level Pressure  
Sea Level Pressure 29.54 in    
Wind  
Wind Speed 19 mph (WSW)    
Max Wind Speed 25 mph    
Max Gust Speed 38 mph    
Visibility 10 miles    
Events      
Averages and records for this station are not official NWS values.
T = Trace of Precipitation, MM = Missing Value Source: NWS Daily Summary

Daily Weather History Graph

Daily Weather History Graph

Search for Another Location

Airport or City:

Trip Planner

Search our weather history database for the weather conditions in past years. The results will help you decide how hot, cold, wet, or windy it might be!

Date:

Astronomy

Mar. 18, 2014 Rise Set
Actual Time 7:36 AM CDT 7:39 PM CDT
Civil Twilight 7:10 AM CDT 8:05 PM CDT
Nautical Twilight 6:40 AM CDT 8:35 PM CDT
Astronomical Twilight 6:10 AM CDT 9:05 PM CDT
Moon 9:53 PM CDT (3/18) 8:30 AM CDT (3/18)
Length of Visible Light 12h 54m
Length of Day
12h 03m
Waning Gibbous, 96% of the Moon is Illuminated
Mar 18
Waning Gibbous
Mar 23
Last Quarter
Mar 30
New
Apr 7
First Quarter
Apr 15
Full

Hourly Weather History & Observations

Time (CDT) Temp. Windchill Dew Point Humidity Pressure Visibility Wind Dir Wind Speed Gust Speed Precip Events Conditions
12:53 AM 51.1 °F - 27.0 °F 39% 29.50 in 10.0 mi SSE 19.6 mph 28.8 mph N/A   Clear
1:53 AM 52.0 °F - 26.1 °F 37% 29.47 in 10.0 mi SSE 19.6 mph 33.4 mph N/A   Clear
2:53 AM 52.0 °F - 26.1 °F 37% 29.44 in 10.0 mi SSE 23.0 mph 33.4 mph N/A   Clear
3:53 AM 51.1 °F - 28.0 °F 41% 29.40 in 10.0 mi South 23.0 mph 36.8 mph N/A   Clear
4:53 AM 50.0 °F - 28.0 °F 43% 29.37 in 10.0 mi South 25.3 mph 38.0 mph N/A   Clear
5:53 AM 51.1 °F - 28.9 °F 43% 29.36 in 10.0 mi South 19.6 mph 36.8 mph N/A   Clear
6:53 AM 50.0 °F - 28.9 °F 44% 29.38 in 10.0 mi South 23.0 mph 33.4 mph N/A   Clear
7:53 AM 50.0 °F - 28.9 °F 44% 29.39 in 10.0 mi South 13.8 mph 24.2 mph N/A   Clear
8:53 AM 53.1 °F - 30.0 °F 41% 29.40 in 10.0 mi South 13.8 mph 31.1 mph N/A   Clear
9:53 AM 57.0 °F - 30.0 °F 36% 29.41 in 10.0 mi South 17.3 mph 24.2 mph N/A   Clear
10:53 AM 62.1 °F - 30.0 °F 30% 29.41 in 10.0 mi SSW 17.3 mph 27.6 mph N/A   Clear
11:53 AM 64.9 °F - 30.9 °F 28% 29.43 in 10.0 mi SW 19.6 mph 28.8 mph N/A   Clear
12:53 PM 64.9 °F - 33.1 °F 31% 29.46 in 10.0 mi West 20.7 mph 27.6 mph N/A   Clear
1:53 PM 66.9 °F - 34.0 °F 30% 29.49 in 10.0 mi NW 16.1 mph 26.5 mph N/A   Clear
2:53 PM 70.0 °F - 34.0 °F 27% 29.50 in 10.0 mi West 16.1 mph 24.2 mph N/A   Clear
3:53 PM 72.0 °F - 32.0 °F 23% 29.51 in 10.0 mi West 17.3 mph 23.0 mph N/A   Clear
4:53 PM 72.0 °F - 30.9 °F 22% 29.52 in 10.0 mi West 16.1 mph 24.2 mph N/A   Clear
5:53 PM 72.0 °F - 24.1 °F 17% 29.56 in 10.0 mi West 19.6 mph 27.6 mph N/A   Clear
6:53 PM 69.1 °F - 24.1 °F 18% 29.61 in 8.0 mi WNW 24.2 mph 32.2 mph N/A   Clear
7:53 PM 60.1 °F - 34.0 °F 38% 29.72 in 8.0 mi NNW 15.0 mph 29.9 mph N/A   Clear
8:53 PM 55.0 °F - 30.9 °F 40% 29.81 in 10.0 mi NW 17.3 mph 29.9 mph N/A   Clear
9:53 PM 52.0 °F - 28.9 °F 41% 29.88 in 10.0 mi NW 21.9 mph 28.8 mph N/A   Clear
10:53 PM 46.0 °F 38.8 °F 26.1 °F 46% 29.95 in 10.0 mi NW 18.4 mph 32.2 mph N/A   Clear
11:53 PM 44.1 °F 38.1 °F 27.0 °F 51% 29.97 in 10.0 mi NW 11.5 mph 24.2 mph N/A   Clear